UAE29V OMDB-EDDF

Flight info

Callsign UAE29V
Flight time N/A
Altitude 33000
Route ANVIX L223 TARDI N629 BOTAM Y855 LAKLU/N0505F320 Q204 NALKI G652 TOKRA DCT ALROK DCT BOSOB DCT ITRUX Y511 PMA Z712 SIGRO/N0503F340 Z712 WEJ L677 GESON Q777 RASDA DCT OTHON UN128 RDS UL609 MES DCT EVIVI DCT OKANA/N0482F360 DCT NIVIS DCT BABIT DCT ARSIN DCT BUDEX DCT IPDUL DCT RAPET T170 VAGAB/N0464F240 T170 GAPLA T178 KERAX KERAX5A
Aircraft B77W/H-SDE1E2E3FGHIJ2J3J4J5M1RWXY/LB1D1

Departure

Time 2026-04-25 13:22
Airport Dubai International Airport (OMDB)

Arrival

Time N/A
Airport Frankfurt Main Airport (EDDF)
Time Latitude Longitude Altitude Speed Heading
2026-04-25 12:37 25.24439 55.37221 46 ft 0 kts 212°
2026-04-25 13:07 25.24443 55.37224 46 ft 0 kts 212°
2026-04-25 13:07 25.24455 55.37231 46 ft 2 kts 204°
2026-04-25 13:08 25.24469 55.37237 46 ft 2 kts 192°
2026-04-25 13:08 25.24484 55.37239 46 ft 2 kts 181°
2026-04-25 13:08 25.24499 55.37239 46 ft 2 kts 171°
2026-04-25 13:08 25.24513 55.37235 46 ft 2 kts 161°
2026-04-25 13:09 25.24527 55.37229 46 ft 2 kts 150°
2026-04-25 13:09 25.24540 55.37220 46 ft 2 kts 140°
2026-04-25 13:09 25.24551 55.37209 46 ft 2 kts 130°
2026-04-25 13:09 25.24558 55.37198 46 ft 0 kts 122°
2026-04-25 13:10 25.24560 55.37195 46 ft 0 kts 121°
2026-04-25 13:10 25.24559 55.37196 46 ft 0 kts 121°
2026-04-25 13:13 25.24558 55.37199 46 ft 2 kts 122°
2026-04-25 13:13 25.24535 55.37238 46 ft 11 kts 122°
2026-04-25 13:14 25.24479 55.37340 46 ft 17 kts 121°
2026-04-25 13:14 25.24418 55.37449 46 ft 15 kts 121°
2026-04-25 13:14 25.24364 55.37548 46 ft 14 kts 121°
2026-04-25 13:14 25.24313 55.37638 46 ft 13 kts 121°
2026-04-25 13:15 25.24267 55.37721 46 ft 11 kts 116°
2026-04-25 13:15 25.24290 55.37786 46 ft 9 kts 33°
2026-04-25 13:15 25.24341 55.37823 46 ft 7 kts 33°
2026-04-25 13:15 25.24342 55.37824 46 ft 0 kts 33°
2026-04-25 13:18 25.24344 55.37825 46 ft 2 kts 33°
2026-04-25 13:19 25.24382 55.37853 46 ft 11 kts 33°
2026-04-25 13:19 25.24462 55.37913 46 ft 13 kts 34°
2026-04-25 13:19 25.24536 55.37968 46 ft 11 kts 34°
2026-04-25 13:19 25.24558 55.37984 46 ft 11 kts 34°
2026-04-25 13:20 25.24645 55.38048 46 ft 0 kts 34°
2026-04-25 13:20 25.24645 55.38049 46 ft 0 kts 34°
2026-04-25 13:20 25.24653 55.38054 46 ft 3 kts 34°
2026-04-25 13:20 25.24704 55.38088 46 ft 12 kts 30°
2026-04-25 13:21 25.24779 55.38081 46 ft 11 kts 298°
2026-04-25 13:21 25.24845 55.37954 46 ft 40 kts 301°
2026-04-25 13:21 25.25122 55.37460 46 ft 109 kts 301°
2026-04-25 13:21 25.25623 55.36551 47 ft 168 kts 301°
2026-04-25 13:22 25.26274 55.35364 403 ft 188 kts 300°
2026-04-25 13:22 25.26947 55.34121 1179 ft 190 kts 301°
2026-04-25 13:22 25.27620 55.32917 1901 ft 188 kts 301°
2026-04-25 13:23 25.28939 55.30357 2971 ft 195 kts 287°
2026-04-25 13:23 25.29102 55.28884 3528 ft 198 kts 265°
2026-04-25 13:23 25.28732 55.27422 4089 ft 201 kts 246°
2026-04-25 13:23 25.28115 55.26037 4638 ft 204 kts 245°
2026-04-25 13:24 25.27497 55.24622 5222 ft 205 kts 246°
2026-04-25 13:24 25.26891 55.23199 5797 ft 206 kts 247°
2026-04-25 13:24 25.26289 55.21778 6340 ft 208 kts 246°
2026-04-25 13:24 25.25662 55.20299 6758 ft 218 kts 246°
2026-04-25 13:25 25.24966 55.18742 7020 ft 237 kts 237°
2026-04-25 13:25 25.23786 55.17430 7500 ft 248 kts 212°
2026-04-25 13:25 25.22144 55.16768 8052 ft 257 kts 187°
2026-04-25 13:25 25.20337 55.16818 8619 ft 266 kts 169°
2026-04-25 13:26 25.18622 55.17611 9278 ft 272 kts 144°
2026-04-25 13:26 25.17337 55.19185 9704 ft 289 kts 120°
2026-04-25 13:26 25.16420 55.21204 10210 ft 301 kts 117°
2026-04-25 13:26 25.15499 55.23276 10959 ft 303 kts 118°
2026-04-25 13:27 25.14530 55.25356 11737 ft 304 kts 119°
2026-04-25 13:27 25.13541 55.27431 12433 ft 303 kts 120°
2026-04-25 13:27 25.12560 55.29473 12695 ft 307 kts 120°
2026-04-25 13:27 25.11546 55.31578 13020 ft 311 kts 120°
2026-04-25 13:28 25.10531 55.33688 13424 ft 311 kts 118°
2026-04-25 13:28 25.10218 55.34388 13530 ft 313 kts 116°
2026-04-25 13:28 25.08721 55.38102 14086 ft 318 kts 115°
2026-04-25 13:28 25.07825 55.40315 14428 ft 320 kts 116°
2026-04-25 13:29 25.06906 55.42574 14739 ft 323 kts 115°
2026-04-25 13:29 25.06011 55.44903 14801 ft 336 kts 114°
2026-04-25 13:29 25.05088 55.47327 14924 ft 344 kts 114°
2026-04-25 13:30 25.03206 55.52232 15538 ft 347 kts 114°
2026-04-25 13:30 25.02270 55.54648 15846 ft 349 kts 116°
2026-04-25 13:30 25.01115 55.57021 16101 ft 351 kts 121°
2026-04-25 13:31 24.98586 55.61699 16473 ft 370 kts 121°
2026-04-25 13:31 24.97239 55.64187 16809 ft 385 kts 121°
2026-04-25 13:31 24.95817 55.66817 17159 ft 401 kts 121°
2026-04-25 13:31 24.94348 55.69515 17468 ft 416 kts 123°
2026-04-25 13:32 24.92655 55.72181 17781 ft 431 kts 127°
2026-04-25 13:32 24.90869 55.74874 18152 ft 444 kts 127°
2026-04-25 13:32 24.89002 55.77684 18832 ft 448 kts 127°
2026-04-25 13:32 24.87159 55.80459 19576 ft 450 kts 127°
2026-04-25 13:33 24.85304 55.83252 20221 ft 455 kts 127°
2026-04-25 13:33 24.83406 55.86103 20811 ft 461 kts 128°
2026-04-25 13:33 24.81478 55.88951 21424 ft 465 kts 128°
2026-04-25 13:33 24.80190 55.90850 21856 ft 468 kts 129°
2026-04-25 13:34 24.77409 55.94559 22689 ft 470 kts 137°
2026-04-25 13:34 24.75048 55.97048 23247 ft 474 kts 139°
2026-04-25 13:34 24.72611 55.99553 23826 ft 478 kts 139°
2026-04-25 13:34 24.70166 56.02062 24386 ft 482 kts 139°
2026-04-25 13:35 24.67709 56.04583 24909 ft 486 kts 139°
2026-04-25 13:35 24.65329 56.07031 25420 ft 490 kts 139°
2026-04-25 13:35 24.62836 56.09595 25948 ft 493 kts 139°
2026-04-25 13:35 24.60319 56.12182 26460 ft 497 kts 139°
2026-04-25 13:36 24.57785 56.14795 27016 ft 500 kts 137°
2026-04-25 13:36 24.55403 56.17640 27566 ft 503 kts 133°
2026-04-25 13:36 24.53125 56.20538 28014 ft 508 kts 132°
2026-04-25 13:36 24.50795 56.23513 28460 ft 513 kts 133°
2026-04-25 13:37 24.48452 56.26502 28937 ft 516 kts 132°
2026-04-25 13:37 24.46082 56.29522 29456 ft 519 kts 132°
2026-04-25 13:37 24.43723 56.32526 30090 ft 519 kts 133°
2026-04-25 13:37 24.41394 56.35489 30770 ft 518 kts 133°
2026-04-25 13:38 24.39013 56.38514 31478 ft 516 kts 133°
2026-04-25 13:38 24.36639 56.41530 32144 ft 514 kts 133°
2026-04-25 13:38 24.34291 56.44509 32671 ft 514 kts 133°
2026-04-25 13:38 24.31950 56.47476 32901 ft 518 kts 133°
2026-04-25 13:39 24.29579 56.50481 32891 ft 517 kts 133°
2026-04-25 13:39 24.25272 56.56810 32881 ft 516 kts 127°
2026-04-25 13:40 24.21088 56.63221 32875 ft 517 kts 127°
2026-04-25 13:40 24.16879 56.69614 32864 ft 517 kts 128°
2026-04-25 13:41 24.12669 56.75973 32853 ft 517 kts 128°
2026-04-25 13:41 24.08366 56.82332 32845 ft 515 kts 133°
2026-04-25 13:42 24.03029 56.87488 32848 ft 510 kts 150°
2026-04-25 13:42 23.96635 56.90657 32849 ft 500 kts 167°
2026-04-25 13:43 23.89884 56.92604 32874 ft 501 kts 168°
2026-04-25 13:43 23.83031 56.94495 32899 ft 500 kts 168°
2026-04-25 13:44 23.76213 56.96350 32911 ft 501 kts 169°
2026-04-25 13:44 23.69450 56.98177 32935 ft 501 kts 169°
2026-04-25 13:45 23.62649 57.00005 32974 ft 501 kts 169°
2026-04-25 13:45 23.55858 57.01826 33001 ft 501 kts 169°
2026-04-25 13:46 23.49019 57.03655 33035 ft 502 kts 169°
2026-04-25 13:46 23.42193 57.05465 33071 ft 501 kts 171°
2026-04-25 13:47 23.35286 57.05908 33095 ft 487 kts 188°
2026-04-25 13:47 23.31987 57.05358 32642 ft 480 kts 194°
2026-04-25 13:47 23.28698 57.04598 32188 ft 476 kts 194°
2026-04-25 13:48 23.22070 57.03029 32158 ft 494 kts 194°
2026-04-25 13:48 23.15326 57.01438 32105 ft 493 kts 194°
2026-04-25 13:49 23.08580 56.99851 32070 ft 492 kts 194°
2026-04-25 13:49 23.01818 56.98262 32034 ft 492 kts 194°
2026-04-25 13:50 22.95115 56.96689 32023 ft 494 kts 194°
2026-04-25 13:50 22.88456 56.94576 32026 ft 490 kts 207°
2026-04-25 13:51 22.84014 56.91777 32020 ft 487 kts 219°
2026-04-25 13:51 22.79224 56.86594 32012 ft 481 kts 236°
2026-04-25 13:52 22.75899 56.80334 31984 ft 481 kts 244°
2026-04-25 13:52 22.72852 56.73886 31951 ft 480 kts 244°
2026-04-25 13:53 22.69792 56.67467 31934 ft 480 kts 244°
2026-04-25 13:53 22.66710 56.61041 31924 ft 480 kts 244°
2026-04-25 13:54 22.63604 56.54589 31913 ft 481 kts 244°
2026-04-25 13:54 22.60505 56.48169 31908 ft 479 kts 244°
2026-04-25 13:55 22.57378 56.41704 31896 ft 481 kts 244°
2026-04-25 13:55 22.54266 56.35279 31886 ft 481 kts 244°
2026-04-25 13:56 22.51142 56.28827 31879 ft 480 kts 244°
2026-04-25 13:56 22.48040 56.22431 31877 ft 481 kts 244°
2026-04-25 13:57 22.44902 56.15968 31868 ft 479 kts 244°
2026-04-25 13:57 22.41789 56.09566 31866 ft 481 kts 244°
2026-04-25 13:58 22.38660 56.03140 31859 ft 481 kts 244°
2026-04-25 13:58 22.35537 55.96757 31856 ft 480 kts 244°
2026-04-25 13:59 22.32391 55.90353 31851 ft 481 kts 244°
2026-04-25 13:59 22.29231 55.83926 31856 ft 481 kts 244°
2026-04-25 14:00 22.26603 55.78589 31854 ft 481 kts 244°
2026-04-25 14:00 22.22943 55.71139 31855 ft 480 kts 244°
2026-04-25 14:01 22.19806 55.64751 31854 ft 480 kts 244°
2026-04-25 14:01 22.16806 55.58309 31846 ft 478 kts 251°
2026-04-25 14:02 22.15285 55.51367 31848 ft 476 kts 265°
2026-04-25 14:02 22.14693 55.44267 31855 ft 473 kts 266°
2026-04-25 14:03 22.14113 55.37133 31855 ft 473 kts 266°
2026-04-25 14:03 22.13530 55.30035 31855 ft 473 kts 266°
2026-04-25 14:04 22.12945 55.22953 31860 ft 474 kts 266°
2026-04-25 14:04 22.12354 55.15847 31862 ft 472 kts 266°
2026-04-25 14:05 22.11760 55.08758 31879 ft 473 kts 266°
2026-04-25 14:05 22.11164 55.01689 31882 ft 469 kts 266°
2026-04-25 14:06 22.10570 54.94662 31886 ft 474 kts 266°
2026-04-25 14:06 22.09968 54.87593 31879 ft 470 kts 266°
2026-04-25 14:07 22.09366 54.80553 31872 ft 472 kts 265°
2026-04-25 14:07 22.08760 54.73484 31872 ft 472 kts 266°
2026-04-25 14:08 22.08155 54.66453 31866 ft 470 kts 266°